FRS93 EDFM-EDRY

Flight info

Callsign FRS93
Flight time 0h -19m
Altitude 3500
Route 4925N00831E DCT ANEKI DCT NEKLO
Aircraft BE35/L-BDFGLORY/S

Departure

Time 2026-05-08 19:14
Airport Mannheim-City Airport (EDFM)

Arrival

Time 2026-05-08 18:54
Airport Speyer Airfield (EDRY)
Time Latitude Longitude Altitude Speed Heading
2026-05-08 18:54 49.47561 8.52057 313 ft 0 kts 182°
2026-05-08 19:07 49.47538 8.52134 318 ft 14 kts 89°
2026-05-08 19:07 49.47450 8.52164 318 ft 17 kts 184°
2026-05-08 19:07 49.47348 8.52158 318 ft 11 kts 182°
2026-05-08 19:08 49.47339 8.52157 318 ft 0 kts 184°
2026-05-08 19:09 49.47267 8.52151 318 ft 20 kts 186°
2026-05-08 19:09 49.47199 8.51982 318 ft 24 kts 274°
2026-05-08 19:09 49.47209 8.51708 318 ft 28 kts 274°
2026-05-08 19:10 49.47220 8.51398 318 ft 30 kts 272°
2026-05-08 19:10 49.47231 8.51066 318 ft 32 kts 272°
2026-05-08 19:10 49.47240 8.50778 318 ft 10 kts 279°
2026-05-08 19:10 49.47250 8.50742 318 ft 0 kts 303°
2026-05-08 19:12 49.47302 8.50687 318 ft 17 kts 50°
2026-05-08 19:13 49.47300 8.50727 318 ft 2 kts 99°
2026-05-08 19:13 49.47299 8.50733 318 ft 0 kts 99°
2026-05-08 19:13 49.47296 8.50761 318 ft 17 kts 95°
2026-05-08 19:13 49.47268 8.51407 388 ft 89 kts 101°
2026-05-08 19:14 49.46940 8.52061 935 ft 89 kts 156°
2026-05-08 19:14 49.46187 8.51959 1227 ft 129 kts 199°
2026-05-08 19:14 49.45309 8.51351 1624 ft 146 kts 214°
2026-05-08 19:14 49.44402 8.50396 1667 ft 171 kts 217°
2026-05-08 19:15 49.43395 8.49520 2083 ft 166 kts 199°
2026-05-08 19:15 49.42207 8.49199 2180 ft 178 kts 185°
2026-05-08 19:15 49.40927 8.48976 2082 ft 191 kts 188°
2026-05-08 19:15 49.39638 8.48627 1978 ft 180 kts 193°
2026-05-08 19:16 49.38528 8.48171 1924 ft 154 kts 194°
2026-05-08 19:16 49.37577 8.47711 1837 ft 124 kts 199°
2026-05-08 19:16 49.36802 8.47238 1615 ft 123 kts 206°
2026-05-08 19:16 49.36062 8.46684 1477 ft 116 kts 202°
2026-05-08 19:17 49.35314 8.46385 1375 ft 112 kts 182°
2026-05-08 19:17 49.34579 8.46456 1321 ft 104 kts 157°
2026-05-08 19:17 49.33848 8.46730 1109 ft 109 kts 172°
2026-05-08 19:17 49.33100 8.46896 1124 ft 113 kts 168°
2026-05-08 19:18 49.32306 8.47157 1233 ft 123 kts 164°
2026-05-08 19:18 49.31508 8.47636 1297 ft 121 kts 149°
2026-05-08 19:18 49.30790 8.48258 1272 ft 117 kts 141°
2026-05-08 19:18 49.30044 8.48807 1077 ft 126 kts 162°
2026-05-08 19:19 49.29284 8.48986 977 ft 88 kts 216°
2026-05-08 19:19 49.29036 8.48132 695 ft 93 kts 262°
2026-05-08 19:19 49.29050 8.47247 607 ft 68 kts 300°
2026-05-08 19:19 49.29196 8.46589 563 ft 65 kts 291°
2026-05-08 19:20 49.29557 8.45947 817 ft 103 kts 341°
2026-05-08 19:20 49.29791 8.45809 856 ft 120 kts 347°
2026-05-08 19:20 49.31361 8.45271 970 ft 139 kts 349°
2026-05-08 19:20 49.32142 8.45423 1057 ft 116 kts 63°
2026-05-08 19:21 49.32098 8.46591 1116 ft 117 kts 118°
2026-05-08 19:21 49.31458 8.47400 1152 ft 126 kts 156°
2026-05-08 19:21 49.30599 8.47819 1048 ft 130 kts 165°
2026-05-08 19:21 49.29742 8.48158 1042 ft 124 kts 167°
2026-05-08 19:22 49.28923 8.48396 966 ft 107 kts 181°
2026-05-08 19:22 49.28545 8.47625 668 ft 94 kts 262°
2026-05-08 19:22 49.28550 8.46700 748 ft 84 kts 282°
2026-05-08 19:22 49.28782 8.45878 718 ft 85 kts 325°
2026-05-08 19:23 49.29245 8.45666 507 ft 59 kts 341°
2026-05-08 19:23 49.29731 8.45471 409 ft 85 kts 348°
2026-05-08 19:23 49.30201 8.45286 322 ft 53 kts 347°
2026-05-08 19:23 49.30607 8.45119 350 ft 85 kts 348°
2026-05-08 19:24 49.31254 8.44998 650 ft 99 kts
2026-05-08 19:24 49.31974 8.44988 891 ft 113 kts
2026-05-08 19:24 49.32621 8.45517 1229 ft 118 kts 59°
2026-05-08 19:24 49.32634 8.46876 1376 ft 138 kts 111°
2026-05-08 19:25 49.31871 8.47870 1378 ft 156 kts 156°
2026-05-08 19:25 49.30893 8.48305 1290 ft 128 kts 165°
2026-05-08 19:25 49.30116 8.48511 1260 ft 114 kts 169°
2026-05-08 19:25 49.29392 8.48777 1555 ft 114 kts 172°
2026-05-08 19:26 49.28499 8.48856 1389 ft 141 kts 172°
2026-05-08 19:26 49.27567 8.49198 1431 ft 133 kts 148°
2026-05-08 19:26 49.26791 8.49920 1358 ft 132 kts 140°
2026-05-08 19:26 49.26039 8.50715 1243 ft 135 kts 152°
2026-05-08 19:27 49.25222 8.51383 1220 ft 131 kts 148°
2026-05-08 19:27 49.24432 8.52078 1072 ft 132 kts 142°
2026-05-08 19:27 49.23620 8.52529 900 ft 120 kts 187°
2026-05-08 19:27 49.23064 8.51905 903 ft 92 kts 250°
2026-05-08 19:28 49.22978 8.50976 743 ft 91 kts 270°
2026-05-08 19:28 49.23310 8.50253 708 ft 97 kts 323°
2026-05-08 19:28 49.23724 8.49413 813 ft 103 kts 303°
2026-05-08 19:28 49.24219 8.48626 984 ft 107 kts 327°
2026-05-08 19:29 49.24859 8.47969 1142 ft 110 kts 331°
2026-05-08 19:29 49.25574 8.47479 1171 ft 114 kts 342°
2026-05-08 19:29 49.26321 8.47081 1212 ft 115 kts 341°
2026-05-08 19:29 49.27093 8.46572 1068 ft 128 kts 338°
2026-05-08 19:30 49.27898 8.46166 863 ft 101 kts 347°
2026-05-08 19:30 49.28459 8.45960 716 ft 77 kts 351°
2026-05-08 19:30 49.28954 8.45779 566 ft 64 kts 346°
2026-05-08 19:30 49.29357 8.45626 436 ft 73 kts 346°
2026-05-08 19:31 49.29830 8.45425 335 ft 51 kts 349°
2026-05-08 19:31 49.30049 8.45368 331 ft 13 kts 34°
2026-05-08 19:31 49.30067 8.45449 329 ft 6 kts 52°
2026-05-08 19:31 49.30102 8.45451 330 ft 10 kts 346°
2026-05-08 19:32 49.30187 8.45417 330 ft 15 kts 346°
2026-05-08 19:32 49.30285 8.45393 330 ft 11 kts 41°
2026-05-08 19:32 49.30324 8.45440 330 ft 6 kts 319°
2026-05-08 19:32 49.30325 8.45412 330 ft 1 kts 252°
2026-05-08 19:33 49.30324 8.45410 330 ft 0 kts 252°